Location: Newark
(49.8969°N, 3.3422°E)
Time: 01:02:28
(UTC+00:00)

Vanguard 1 Rocket - Pass Details

Date: 23 January 2020
Orbit: 650 x 4226 km, 34.3° (Epoch: 26 February)

Event Time Altitude Azimuth Distance (km) Brightness Sun altitude
Rises 12:11:26 0° 250° (WSW) 4,875 11.4 20.5°
Reaches altitude 10° 12:14:14 10° 244° (WSW) 4,248 11.3 20.5°
Maximum altitude 12:25:48 45° 177° (S) 3,517 11.8 20.3°
Drops below altitude 10° 12:45:55 10° 115° (ESE) 7,125 12.2 19.8°
Sets 12:52:28 0° 110° (ESE) 8,386 12.4 19.6°
